Regional Weather Roundup
Issued by NWS

Home | Current Version | Previous Version | Graphics & Text | Print | Product List | Glossary On
Versions: 1 2 3 4 5 6 7 8 9 10 11 12 13 14 15 16 17 18 19 20 21 22 23 24 25 26 27 28 29 30 31 32 33 34 35 36 37 38 39 40 41 42 43 44 45 46 47 48 49 50
000
ASUS43 KLMK 010902
RWRKY
KENTUCKY REGIONAL WEATHER ROUNDUP
NATIONAL WEATHER SERVICE LOUISVILLE KY
500 AM EDT SAT OCT 01 2016

NOTE "FAIR" INDICATES FEW OR NO CLOUDS BELOW 12,000 FEET
WITH NO SIGNIFICANT WEATHER AND/OR OBSTRUCTIONS TO VISIBILITY.

KYZ001>023-026-027-061>063-070>075-011000-
WESTERN AND SOUTH CENTRAL KENTUCKY

CITY           SKY/WX    TMP DP  RH WIND       PRES   REMARKS
PADUCAH        CLOUDY    62  59  90 W6        30.00S
HENDERSON      CLOUDY    57  54  88 SW3       29.98F
OWENSBORO      NOT AVBL
HOPKINSVILLE   CLOUDY    60  59  99 S5        30.01S
BOWLING GREEN  CLOUDY    60  58  92 S5        30.02S
GLASGOW        CLOUDY    58  58 100 S3        30.02S
$$

KYZ024-025-028>034-038-045-046-053-011000-
NORTH CENTRAL KENTUCKY

CITY           SKY/WX    TMP DP  RH WIND       PRES   REMARKS
LOUISVILLE/SDF CLOUDY    56  54  93 SE6       30.02S FOG
LOUISVILLE/LOU CLOUDY    56  54  93 VRB3      30.02S
FORT KNOX      FOG       55  55 100 E3        30.00R VSB 3/4
$$

KYZ035>037-039>044-047>052-055>060-089>105-011000-
NORTHEAST KENTUCKY

CITY           SKY/WX    TMP DP  RH WIND       PRES   REMARKS
LEXINGTON      CLOUDY    55  52  89 S3        30.03F
COVINGTON      CLOUDY    56  55  97 S7        30.01F
FRANKFORT      CLOUDY    56  53  90 S8        30.02S
$$

KYZ054-064>069-076>088-106>120-011000-
SOUTHEAST KENTUCKY

CITY           SKY/WX    TMP DP  RH WIND       PRES   REMARKS
JACKSON        CLEAR     52  49  89 SE3       30.06F
LONDON         CLEAR     50  47  89 CALM      30.06S
SOMERSET       PTCLDY    52  52 100 S3        30.06F
MIDDLESBORO    FOG       48  48 100 CALM      30.10S VSB 1/2
MONTICELLO     CLOUDY    52  51  97 CALM      30.05F
$$




USA.gov is the U.S. government's official web portal to all federal, state and local government web resources and services.